"read_dt","SO2 (ppb)","flags","PMT voltage (V)","lamp voltage (V)","lamp intensity (Hz)","internal temp (C)","react chamber temp (C)","sample flow (l/min)","pres (mmHg)","SO2 bkg (ppb)","SO2 coefficient"
2016-03-06 00:00:00,1886E-3,5C000400,-0724,0839,12038,030.0,045.5,0.252,762.7,01.16,0.508
2016-03-06 00:01:00,1737E-3,5C000400,-0724,0839,12082,030.0,045.5,0.252,762.7,01.16,0.508
2016-03-06 00:02:00,1888E-3,5C000400,-0724,0839,12099,030.0,045.5,0.252,762.7,01.16,0.508
2016-03-06 00:03:00,1823E-3,5C000400,-0724,0840,12160,030.0,045.5,0.252,762.6,01.16,0.508
2016-03-06 00:04:00,1824E-3,5C000400,-0724,0838,12018,029.9,045.5,0.252,762.7,01.16,0.508
2016-03-06 00:05:00,1858E-3,5C000400,-0724,0838,12117,029.9,045.5,0.252,762.7,01.16,0.508
2016-03-06 00:06:00,1904E-3,5C000400,-0724,0838,12045,030.0,045.5,0.252,762.6,01.16,0.508
2016-03-06 00:07:00,1758E-3,5C000400,-0724,0838,12136,030.0,045.5,0.252,762.6,01.16,0.508
2016-03-06 00:08:00,1886E-3,5C000400,-0724,0839,12200,030.1,045.5,0.252,762.5,01.16,0.508
2016-03-06 00:09:00,1810E-3,5C000400,-0724,0839,12140,030.1,045.5,0.252,762.5,01.16,0.508
2016-03-06 00:10:00,1750E-3,5C000400,-0724,0839,11993,030.2,045.5,0.252,762.6,01.16,0.508
2016-03-06 00:11:00,1940E-3,5C000400,-0724,0838,12172,030.1,045.5,0.252,762.5,01.16,0.508
2016-03-06 00:12:00,1904E-3,5C000400,-0724,0838,11962,030.1,045.5,0.252,762.5,01.16,0.508
2016-03-06 00:13:00,1891E-3,5C000400,-0724,0838,12140,030.1,045.5,0.252,762.5,01.16,0.508
2016-03-06 00:14:00,1802E-3,5C000400,-0724,0838,12119,030.0,045.5,0.252,762.6,01.16,0.508
2016-03-06 00:15:00,1837E-3,5C000400,-0724,0839,12167,030.0,045.5,0.252,762.5,01.16,0.508
2016-03-06 00:16:00,1965E-3,5C000400,-0724,0839,12100,030.0,045.5,0.252,762.6,01.16,0.508
2016-03-06 00:17:00,1919E-3,5C000400,-0724,0838,12103,030.0,045.5,0.252,762.6,01.16,0.508
2016-03-06 00:18:00,1890E-3,5C000400,-0724,0838,12131,030.0,045.5,0.252,762.6,01.16,0.508
2016-03-06 00:19:00,1957E-3,5C000400,-0724,0839,12215,030.1,045.5,0.252,762.6,01.16,0.508
2016-03-06 00:20:00,1869E-3,5C000400,-0724,0839,12177,030.2,045.5,0.252,762.5,01.16,0.508
2016-03-06 00:21:00,1940E-3,5C000400,-0724,0839,12049,030.1,045.5,0.252,762.5,01.16,0.508
2016-03-06 00:22:00,1799E-3,5C000400,-0724,0839,12181,030.1,045.5,0.252,762.4,01.16,0.508
2016-03-06 00:23:00,1914E-3,5C000400,-0724,0838,12189,030.0,045.5,0.252,762.5,01.16,0.508
2016-03-06 00:24:00,1767E-3,5C000400,-0724,0838,12041,030.0,045.5,0.251,762.6,01.16,0.508
2016-03-06 00:25:00,1942E-3,5C000400,-0724,0837,12034,030.0,045.5,0.251,762.6,01.16,0.508
2016-03-06 00:26:00,1764E-3,5C000400,-0724,0839,12081,030.0,045.5,0.252,762.6,01.16,0.508
2016-03-06 00:27:00,1856E-3,5C000400,-0724,0838,12111,029.9,045.5,0.252,762.6,01.16,0.508
2016-03-06 00:28:00,1918E-3,5C000400,-0724,0838,12146,029.9,045.5,0.252,762.7,01.16,0.508
2016-03-06 00:29:00,1837E-3,5C000400,-0724,0839,12084,029.9,045.5,0.252,762.7,01.16,0.508
2016-03-06 00:30:00,1907E-3,5C000400,-0724,0838,12082,030.0,045.5,0.252,762.7,01.16,0.508
2016-03-06 00:31:00,1951E-3,5C000400,-0724,0839,12052,030.0,045.5,0.252,762.7,01.16,0.508
2016-03-06 00:32:00,1790E-3,5C000400,-0724,0838,12155,030.1,045.5,0.252,762.7,01.16,0.508
2016-03-06 00:33:00,1822E-3,5C000400,-0724,0839,11998,030.0,045.5,0.252,762.7,01.16,0.508
2016-03-06 00:34:00,1916E-3,5C000400,-0724,0839,12171,030.0,045.5,0.252,762.7,01.16,0.508
2016-03-06 00:35:00,1787E-3,5C000400,-0724,0838,12147,030.0,045.5,0.252,762.8,01.16,0.508
2016-03-06 00:36:00,1914E-3,5C000400,-0724,0839,12181,030.1,045.5,0.252,762.7,01.16,0.508
2016-03-06 00:37:00,1922E-3,5C000400,-0724,0838,12201,030.2,045.5,0.252,762.7,01.16,0.508
2016-03-06 00:38:00,1917E-3,5C000400,-0724,0838,12190,030.2,045.5,0.252,762.6,01.16,0.508
2016-03-06 00:39:00,1856E-3,5C000400,-0724,0838,12087,030.3,045.5,0.252,762.6,01.16,0.508
2016-03-06 00:40:00,1869E-3,5C000400,-0724,0838,12166,030.3,045.5,0.252,762.6,01.16,0.508
2016-03-06 00:41:00,1832E-3,5C000400,-0724,0838,12144,030.3,045.5,0.251,762.6,01.16,0.508
2016-03-06 00:42:00,1839E-3,5C000400,-0724,0839,12141,030.3,045.5,0.252,762.5,01.16,0.508
2016-03-06 00:43:00,1829E-3,5C000400,-0724,0839,12069,030.3,045.5,0.252,762.5,01.16,0.508
2016-03-06 00:44:00,1746E-3,5C000400,-0724,0839,12005,030.3,045.5,0.252,762.6,01.16,0.508
2016-03-06 00:45:00,1847E-3,5C000400,-0724,0838,12114,030.2,045.5,0.252,762.5,01.16,0.508
2016-03-06 00:46:00,1948E-3,5C000400,-0724,0838,12080,030.1,045.5,0.251,762.6,01.16,0.508
2016-03-06 00:47:00,1930E-3,5C000400,-0724,0839,12110,030.1,045.5,0.252,762.5,01.16,0.508
2016-03-06 00:48:00,1806E-3,5C000400,-0724,0838,12033,030.1,045.5,0.252,762.6,01.16,0.508
2016-03-06 00:49:00,1859E-3,5C000400,-0724,0838,12086,030.1,045.5,0.252,762.6,01.16,0.508
2016-03-06 00:50:00,1925E-3,5C000400,-0724,0839,12043,030.2,045.5,0.252,762.6,01.16,0.508
2016-03-06 00:51:00,1853E-3,5C000400,-0724,0839,12238,030.2,045.5,0.252,762.5,01.16,0.508
2016-03-06 00:52:00,1881E-3,5C000400,-0724,0839,12046,030.2,045.5,0.252,762.5,01.16,0.508
2016-03-06 00:53:00,1959E-3,5C000400,-0724,0838,12072,030.2,045.5,0.252,762.5,01.16,0.508
2016-03-06 00:54:00,1920E-3,5C000400,-0724,0838,12114,030.1,045.5,0.252,762.5,01.16,0.508
2016-03-06 00:55:00,1861E-3,5C000400,-0724,0838,11857,030.1,045.5,0.252,762.5,01.16,0.508
2016-03-06 00:56:00,1821E-3,5C000400,-0724,0839,12275,030.1,045.5,0.252,762.5,01.16,0.508
2016-03-06 00:57:00,1780E-3,5C000400,-0724,0839,11978,030.2,045.5,0.252,762.6,01.16,0.508
2016-03-06 00:58:00,1876E-3,5C000400,-0724,0839,12127,030.2,045.5,0.252,762.6,01.16,0.508
2016-03-06 00:59:00,2005E-3,5C000400,-0724,0838,12199,030.3,045.5,0.251,762.6,01.16,0.508
2016-03-06 01:00:00,1795E-3,5C000400,-0724,0838,12121,030.2,045.5,0.251,762.6,01.16,0.508
2016-03-06 01:01:00,1802E-3,5C000400,-0724,0839,12162,030.3,045.5,0.251,762.5,01.16,0.508
2016-03-06 01:02:00,1981E-3,5C000400,-0724,0839,11994,030.3,045.5,0.251,762.6,01.16,0.508
2016-03-06 01:03:00,1748E-3,5C000400,-0724,0838,12041,030.2,045.5,0.251,762.6,01.16,0.508
2016-03-06 01:04:00,1973E-3,5C000400,-0724,0838,12165,030.2,045.5,0.251,762.7,01.16,0.508
2016-03-06 01:05:00,1943E-3,5C000400,-0724,0838,12127,030.1,045.5,0.251,762.6,01.16,0.508
2016-03-06 01:06:00,1783E-3,5C000400,-0724,0838,11931,030.1,045.5,0.251,762.4,01.16,0.508
2016-03-06 01:07:00,1862E-3,5C000400,-0724,0838,12077,030.1,045.5,0.251,762.5,01.16,0.508
2016-03-06 01:08:00,1740E-3,5C000400,-0724,0838,12088,030.2,045.5,0.251,762.5,01.16,0.508
2016-03-06 01:09:00,1833E-3,5C000400,-0724,0838,12103,030.2,045.5,0.251,762.5,01.16,0.508
2016-03-06 01:10:00,1778E-3,5C000400,-0724,0838,12144,030.2,045.5,0.251,762.4,01.16,0.508
2016-03-06 01:11:00,1823E-3,5C000400,-0724,0838,12071,030.3,045.5,0.251,762.4,01.16,0.508
2016-03-06 01:12:00,2006E-3,5C000400,-0724,0839,12020,030.3,045.5,0.251,762.4,01.16,0.508
2016-03-06 01:13:00,1897E-3,5C000400,-0724,0839,12132,030.3,045.5,0.251,762.4,01.16,0.508
2016-03-06 01:14:00,1816E-3,5C000400,-0724,0838,11962,030.4,045.5,0.251,762.3,01.16,0.508
2016-03-06 01:15:00,1924E-3,5C000400,-0724,0838,12078,030.4,045.5,0.251,762.3,01.16,0.508
2016-03-06 01:16:00,1925E-3,5C000400,-0724,0838,12175,030.4,045.5,0.251,762.3,01.16,0.508
2016-03-06 01:17:00,1826E-3,5C000400,-0724,0839,12071,030.3,045.5,0.251,762.3,01.16,0.508
2016-03-06 01:18:00,2043E-3,5C000400,-0724,0838,12166,030.3,045.5,0.251,762.3,01.16,0.508
2016-03-06 01:19:00,2012E-3,5C000400,-0724,0838,12077,030.4,045.5,0.251,762.2,01.16,0.508
2016-03-06 01:20:00,1814E-3,5C000400,-0724,0838,12159,030.4,045.5,0.251,762.2,01.16,0.508
2016-03-06 01:21:00,1814E-3,5C000400,-0724,0838,12108,030.4,045.5,0.251,762.2,01.16,0.508
2016-03-06 01:22:00,1862E-3,5C000400,-0724,0839,12050,030.4,045.5,0.251,762.1,01.16,0.508
2016-03-06 01:23:00,1890E-3,5C000400,-0724,0838,12003,030.4,045.5,0.251,762.1,01.16,0.508
2016-03-06 01:24:00,1850E-3,5C000400,-0724,0839,12257,030.3,045.5,0.251,762.1,01.16,0.508
2016-03-06 01:25:00,1758E-3,5C000400,-0724,0838,12148,030.3,045.5,0.251,762.2,01.16,0.508
2016-03-06 01:26:00,1896E-3,5C000400,-0724,0839,12142,030.3,045.5,0.251,762.2,01.16,0.508
2016-03-06 01:27:00,1876E-3,5C000400,-0724,0838,12030,030.3,045.5,0.251,762.0,01.16,0.508
2016-03-06 01:28:00,1765E-3,5C000400,-0724,0839,12172,030.4,045.5,0.251,761.9,01.16,0.508
2016-03-06 01:29:00,2000E-3,5C000400,-0724,0839,12158,030.4,045.5,0.251,762.1,01.16,0.508
2016-03-06 01:30:00,1935E-3,5C000400,-0724,0838,12066,030.4,045.5,0.251,762.0,01.16,0.508
2016-03-06 01:31:00,1793E-3,5C000400,-0724,0839,12177,030.4,045.5,0.251,762.1,01.16,0.508
2016-03-06 01:32:00,1956E-3,5C000400,-0724,0838,12158,030.4,045.5,0.251,762.1,01.16,0.508
2016-03-06 01:33:00,1779E-3,5C000400,-0724,0838,12000,030.4,045.5,0.251,762.2,01.16,0.508
2016-03-06 01:34:00,1914E-3,5C000400,-0724,0839,12208,030.4,045.5,0.251,761.9,01.16,0.508
2016-03-06 01:35:00,1949E-3,5C000400,-0724,0838,12201,030.5,045.5,0.251,762.0,01.16,0.508
2016-03-06 01:36:00,1909E-3,5C000400,-0724,0838,12095,030.4,045.5,0.251,761.9,01.16,0.508
2016-03-06 01:37:00,1966E-3,5C000400,-0724,0839,12070,030.4,045.5,0.251,762.0,01.16,0.508
2016-03-06 01:38:00,1871E-3,5C000400,-0724,0838,12060,030.3,045.5,0.251,761.8,01.16,0.508
2016-03-06 01:39:00,1701E-3,5C000400,-0724,0839,12052,030.3,045.5,0.251,761.9,01.16,0.508
2016-03-06 01:40:00,1895E-3,5C000400,-0724,0838,12073,030.5,045.5,0.251,762.0,01.16,0.508
2016-03-06 01:41:00,1874E-3,5C000400,-0724,0839,12156,030.5,045.5,0.251,761.9,01.16,0.508
2016-03-06 01:42:00,1908E-3,5C000400,-0724,0839,12122,030.5,045.5,0.251,761.8,01.16,0.508
2016-03-06 01:43:00,1883E-3,5C000400,-0724,0838,12110,030.5,045.5,0.251,761.9,01.16,0.508
2016-03-06 01:44:00,1911E-3,5C000400,-0724,0839,12037,030.5,045.5,0.251,761.7,01.16,0.508
2016-03-06 01:45:00,1894E-3,5C000400,-0724,0839,12029,030.6,045.5,0.251,761.7,01.16,0.508
2016-03-06 01:46:00,2025E-3,5C000400,-0724,0838,12125,030.6,045.5,0.251,761.7,01.16,0.508
2016-03-06 01:47:00,1873E-3,5C000400,-0724,0839,12106,030.6,045.5,0.251,761.7,01.16,0.508
2016-03-06 01:48:00,1814E-3,5C000400,-0724,0838,12135,030.6,045.5,0.251,761.8,01.16,0.508
2016-03-06 01:49:00,1823E-3,5C000400,-0724,0839,12223,030.6,045.5,0.251,761.8,01.16,0.508
2016-03-06 01:50:00,1798E-3,5C000400,-0724,0839,12052,030.6,045.5,0.251,761.7,01.16,0.508
2016-03-06 01:51:00,1929E-3,5C000400,-0724,0838,12106,030.6,045.5,0.251,761.8,01.16,0.508
2016-03-06 01:52:00,1919E-3,5C000400,-0724,0838,12129,030.6,045.5,0.251,761.7,01.16,0.508
2016-03-06 01:53:00,1893E-3,5C000400,-0724,0839,12081,030.7,045.5,0.251,761.7,01.16,0.508
2016-03-06 01:54:00,1801E-3,5C000400,-0724,0839,12071,030.6,045.5,0.251,761.6,01.16,0.508
2016-03-06 01:55:00,1871E-3,5C000400,-0724,0839,12016,030.6,045.5,0.251,761.7,01.16,0.508
2016-03-06 01:56:00,1811E-3,5C000400,-0724,0839,11985,030.6,045.5,0.251,761.8,01.16,0.508
2016-03-06 01:57:00,1822E-3,5C000400,-0724,0839,12064,030.6,045.5,0.251,761.7,01.16,0.508
2016-03-06 01:58:00,1917E-3,5C000400,-0724,0838,12141,030.7,045.5,0.251,761.8,01.16,0.508
2016-03-06 01:59:00,1754E-3,5C000400,-0724,0839,12058,030.6,045.5,0.251,761.7,01.16,0.508
2016-03-06 02:00:00,1859E-3,5C000400,-0724,0838,12176,030.7,045.5,0.251,761.7,01.16,0.508
2016-03-06 02:01:00,1870E-3,5C000400,-0724,0838,12213,030.7,045.5,0.251,761.7,01.16,0.508
2016-03-06 02:02:00,1735E-3,5C000400,-0724,0838,12063,030.7,045.5,0.251,761.7,01.16,0.508
2016-03-06 02:03:00,1854E-3,5C000400,-0724,0839,11982,030.7,045.5,0.251,761.7,01.16,0.508
2016-03-06 02:04:00,1656E-3,5C000400,-0724,0839,12116,030.7,045.5,0.251,761.8,01.16,0.508
2016-03-06 02:05:00,1809E-3,5C000400,-0724,0839,12169,030.7,045.5,0.251,761.8,01.16,0.508
2016-03-06 02:06:00,1884E-3,5C000400,-0724,0839,12077,030.6,045.5,0.251,761.9,01.16,0.508
2016-03-06 02:07:00,1773E-3,5C000400,-0724,0838,11988,030.7,045.5,0.251,762.0,01.16,0.508
2016-03-06 02:08:00,1977E-3,5C000400,-0724,0839,12124,030.7,045.5,0.251,761.9,01.16,0.508
2016-03-06 02:09:00,1742E-3,5C000400,-0724,0839,12015,030.7,045.5,0.251,762.1,01.16,0.508
2016-03-06 02:10:00,1937E-3,5C000400,-0724,0838,12152,030.7,045.5,0.251,762.0,01.16,0.508
2016-03-06 02:11:00,1853E-3,5C000400,-0724,0839,12119,030.8,045.5,0.251,761.8,01.16,0.508
2016-03-06 02:12:00,1750E-3,5C000400,-0724,0839,12202,030.8,045.5,0.251,762.0,01.16,0.508
2016-03-06 02:13:00,1752E-3,5C000400,-0724,0839,12160,030.7,045.5,0.251,762.1,01.16,0.508
2016-03-06 02:14:00,1839E-3,5C000400,-0724,0839,12188,030.8,045.5,0.251,762.0,01.16,0.508
2016-03-06 02:15:00,1764E-3,5C000400,-0724,0839,12134,030.8,045.5,0.251,761.9,01.16,0.508
2016-03-06 02:16:00,1729E-3,5C000400,-0724,0839,12096,030.8,045.5,0.251,762.2,01.16,0.508
2016-03-06 02:17:00,1894E-3,5C000400,-0724,0839,12018,030.8,045.5,0.250,762.0,01.16,0.508
2016-03-06 02:18:00,1813E-3,5C000400,-0724,0839,12059,030.8,045.5,0.251,762.1,01.16,0.508
2016-03-06 02:19:00,1962E-3,5C000400,-0724,0839,12263,030.8,045.5,0.250,762.1,01.16,0.508
2016-03-06 02:20:00,1867E-3,5C000400,-0724,0840,12175,030.8,045.5,0.251,762.1,01.16,0.508
2016-03-06 02:21:00,1837E-3,5C000400,-0724,0838,12026,030.9,045.5,0.250,762.2,01.16,0.508
2016-03-06 02:22:00,1742E-3,5C000400,-0724,0839,12071,030.8,045.5,0.250,762.1,01.16,0.508
2016-03-06 02:23:00,1841E-3,5C000400,-0724,0838,12089,030.9,045.5,0.250,762.3,01.16,0.508
2016-03-06 02:24:00,1783E-3,5C000400,-0724,0838,12195,030.9,045.5,0.250,762.2,01.16,0.508
2016-03-06 02:25:00,1897E-3,5C000400,-0724,0839,12151,030.9,045.5,0.250,762.1,01.16,0.508
2016-03-06 02:26:00,1815E-3,5C000400,-0724,0838,11895,030.9,045.5,0.250,762.2,01.16,0.508
2016-03-06 02:27:00,1803E-3,5C000400,-0724,0839,11937,030.9,045.5,0.250,762.2,01.16,0.508
2016-03-06 02:28:00,1788E-3,5C000400,-0724,0839,12261,030.9,045.5,0.250,762.2,01.16,0.508
2016-03-06 02:29:00,2004E-3,5C000400,-0724,0839,12106,030.9,045.5,0.250,762.2,01.16,0.508
2016-03-06 02:30:00,1869E-3,5C000400,-0724,0839,12210,030.9,045.5,0.250,762.3,01.16,0.508
2016-03-06 02:31:00,1813E-3,5C000400,-0724,0840,12130,030.9,045.5,0.250,762.2,01.16,0.508
2016-03-06 02:32:00,1881E-3,5C000400,-0724,0839,12083,030.9,045.5,0.250,762.2,01.16,0.508
2016-03-06 02:33:00,1975E-3,5C000400,-0724,0839,12029,030.9,045.5,0.250,762.3,01.16,0.508
2016-03-06 02:34:00,1779E-3,5C000400,-0724,0838,12045,030.9,045.5,0.250,762.3,01.16,0.508
2016-03-06 02:35:00,2008E-3,5C000400,-0724,0839,11982,030.9,045.5,0.250,762.3,01.16,0.508
2016-03-06 02:36:00,1938E-3,5C000400,-0724,0839,12029,030.9,045.5,0.250,762.2,01.16,0.508
2016-03-06 02:37:00,1901E-3,5C000400,-0724,0839,12140,030.9,045.5,0.250,762.2,01.16,0.508
2016-03-06 02:38:00,1768E-3,5C000400,-0724,0840,12216,030.9,045.5,0.250,762.2,01.16,0.508
2016-03-06 02:39:00,1820E-3,5C000400,-0724,0839,12124,030.8,045.5,0.250,762.2,01.16,0.508
2016-03-06 02:40:00,1819E-3,5C000400,-0724,0838,12112,030.9,045.5,0.250,762.1,01.16,0.508
2016-03-06 02:41:00,1864E-3,5C000400,-0724,0839,12150,030.9,045.5,0.250,762.2,01.16,0.508
2016-03-06 02:42:00,1798E-3,5C000400,-0724,0839,12080,030.9,045.5,0.250,762.2,01.16,0.508
2016-03-06 02:43:00,1851E-3,5C000400,-0724,0838,12158,030.9,045.5,0.250,762.1,01.16,0.508
2016-03-06 02:44:00,1924E-3,5C000400,-0724,0839,12247,030.9,045.5,0.250,762.2,01.16,0.508
2016-03-06 02:45:00,1713E-3,5C000400,-0724,0838,12232,030.8,045.5,0.250,762.2,01.16,0.508
2016-03-06 02:46:00,1875E-3,5C000400,-0724,0839,12108,030.8,045.5,0.250,762.2,01.16,0.508
2016-03-06 02:47:00,1774E-3,5C000400,-0724,0839,12108,030.8,045.5,0.250,762.3,01.16,0.508
2016-03-06 02:48:00,1824E-3,5C000400,-0724,0840,12039,030.9,045.5,0.250,762.2,01.16,0.508
2016-03-06 02:49:00,1895E-3,5C000400,-0724,0839,12087,030.8,045.5,0.250,762.2,01.16,0.508
2016-03-06 02:50:00,1934E-3,5C000400,-0724,0839,12128,030.9,045.5,0.250,762.2,01.16,0.508
2016-03-06 02:51:00,1839E-3,5C000400,-0724,0839,12045,030.9,045.5,0.250,762.1,01.16,0.508
2016-03-06 02:52:00,1844E-3,5C000400,-0724,0839,12099,030.9,045.5,0.250,762.2,01.16,0.508
2016-03-06 02:53:00,1875E-3,5C000400,-0724,0839,12081,030.9,045.5,0.250,762.1,01.16,0.508
2016-03-06 02:54:00,1831E-3,5C000400,-0724,0839,12090,030.9,045.5,0.250,762.1,01.16,0.508
2016-03-06 02:55:00,1798E-3,5C000400,-0724,0839,12163,030.9,045.5,0.250,762.1,01.16,0.508
2016-03-06 02:56:00,1793E-3,5C000400,-0724,0839,12177,030.9,045.5,0.250,762.1,01.16,0.508
2016-03-06 02:57:00,1815E-3,5C000400,-0724,0839,12086,030.9,045.5,0.250,762.2,01.16,0.508
2016-03-06 02:58:00,1989E-3,5C000400,-0724,0839,12242,030.9,045.5,0.250,762.2,01.16,0.508
2016-03-06 02:59:00,1871E-3,5C000400,-0724,0839,12036,030.9,045.5,0.250,762.1,01.16,0.508
2016-03-06 03:00:00,1946E-3,5C000400,-0724,0839,12092,030.9,045.5,0.250,762.1,01.16,0.508
2016-03-06 03:01:00,1757E-3,5C000400,-0724,0840,12048,030.9,045.5,0.250,762.2,01.16,0.508
2016-03-06 03:02:00,1827E-3,5C000400,-0724,0839,12129,030.9,045.5,0.250,762.1,01.16,0.508
2016-03-06 03:03:00,1881E-3,5C000400,-0724,0839,12091,030.9,045.5,0.250,762.1,01.16,0.508
2016-03-06 03:04:00,1907E-3,5C000400,-0724,0839,12209,030.9,045.5,0.250,762.0,01.16,0.508
2016-03-06 03:05:00,1980E-3,5C000400,-0724,0839,12013,030.9,045.5,0.250,762.1,01.16,0.508
2016-03-06 03:06:00,1797E-3,5C000400,-0724,0839,12161,030.8,045.5,0.250,762.0,01.16,0.508
2016-03-06 03:07:00,1900E-3,5C000400,-0724,0839,12104,030.8,045.5,0.250,762.2,01.16,0.508
2016-03-06 03:08:00,1782E-3,5C000400,-0724,0838,12067,030.9,045.5,0.251,762.1,01.16,0.508
2016-03-06 03:09:00,1886E-3,5C000400,-0724,0839,12047,030.9,045.5,0.251,762.2,01.16,0.508
2016-03-06 03:10:00,1830E-3,5C000400,-0724,0839,12107,030.8,045.5,0.251,762.2,01.16,0.508
2016-03-06 03:11:00,1844E-3,5C000400,-0724,0839,12074,030.8,045.5,0.251,762.2,01.16,0.508
2016-03-06 03:12:00,1838E-3,5C000400,-0724,0839,12036,030.8,045.5,0.250,762.2,01.16,0.508
2016-03-06 03:13:00,1878E-3,5C000400,-0724,0838,12168,030.8,045.5,0.251,762.2,01.16,0.508
2016-03-06 03:14:00,1974E-3,5C000400,-0724,0839,11976,030.9,045.5,0.251,762.2,01.16,0.508
2016-03-06 03:15:00,1795E-3,5C000400,-0724,0839,12112,030.8,045.5,0.251,762.2,01.16,0.508
2016-03-06 03:16:00,1838E-3,5C000400,-0724,0839,12272,030.8,045.5,0.251,762.2,01.16,0.508
2016-03-06 03:17:00,1801E-3,5C000400,-0724,0838,12063,030.8,045.5,0.250,762.3,01.16,0.508
2016-03-06 03:18:00,1949E-3,5C000400,-0724,0839,12256,030.8,045.5,0.251,762.2,01.16,0.508
2016-03-06 03:19:00,1932E-3,5C000400,-0724,0839,12012,030.8,045.5,0.251,762.2,01.16,0.508
2016-03-06 03:20:00,1898E-3,5C000400,-0724,0839,12172,030.8,045.5,0.250,762.2,01.16,0.508
2016-03-06 03:21:00,1882E-3,5C000400,-0724,0838,12198,030.9,045.5,0.250,762.2,01.16,0.508
2016-03-06 03:22:00,1918E-3,5C000400,-0724,0839,12138,030.9,045.5,0.251,762.3,01.16,0.508
2016-03-06 03:23:00,1853E-3,5C000400,-0724,0839,12199,030.8,045.5,0.250,762.3,01.16,0.508
2016-03-06 03:24:00,1832E-3,5C000400,-0724,0839,12048,030.8,045.5,0.250,762.3,01.16,0.508
2016-03-06 03:25:00,1885E-3,5C000400,-0724,0839,12031,030.8,045.5,0.250,762.3,01.16,0.508
2016-03-06 03:26:00,1853E-3,5C000400,-0724,0839,12116,030.8,045.5,0.251,762.3,01.16,0.508
2016-03-06 03:27:00,1910E-3,5C000400,-0724,0839,12117,030.8,045.5,0.251,762.3,01.16,0.508
2016-03-06 03:28:00,1858E-3,5C000400,-0724,0839,11998,030.8,045.5,0.250,762.3,01.16,0.508
2016-03-06 03:29:00,1921E-3,5C000400,-0724,0838,12079,030.8,045.5,0.251,762.3,01.16,0.508
2016-03-06 03:30:00,1781E-3,5C000400,-0724,0839,12048,030.8,045.5,0.250,762.3,01.16,0.508
2016-03-06 03:31:00,1888E-3,5C000400,-0724,0838,12155,030.9,045.5,0.250,762.3,01.16,0.508
2016-03-06 03:32:00,1878E-3,5C000400,-0724,0839,12257,030.8,045.5,0.250,762.4,01.16,0.508
2016-03-06 03:33:00,1912E-3,5C000400,-0724,0838,12098,030.8,045.5,0.250,762.3,01.16,0.508
2016-03-06 03:34:00,1849E-3,5C000400,-0724,0840,12134,030.7,045.5,0.250,762.3,01.16,0.508
2016-03-06 03:35:00,1871E-3,5C000400,-0724,0839,12053,030.7,045.5,0.250,762.3,01.16,0.508
2016-03-06 03:36:00,1730E-3,5C000400,-0724,0839,11982,030.7,045.5,0.250,762.2,01.16,0.508
2016-03-06 03:37:00,1857E-3,5C000400,-0724,0838,12198,030.8,045.5,0.250,762.3,01.16,0.508
2016-03-06 03:38:00,1710E-3,5C000400,-0724,0839,12077,030.7,045.5,0.250,762.2,01.16,0.508
2016-03-06 03:39:00,1874E-3,5C000400,-0724,0839,12178,030.6,045.5,0.251,762.2,01.16,0.508
2016-03-06 03:40:00,1902E-3,5C000400,-0724,0839,11867,030.7,045.5,0.251,762.3,01.16,0.508
2016-03-06 03:41:00,1949E-3,5C000400,-0724,0839,12167,030.7,045.5,0.251,762.2,01.16,0.508
2016-03-06 03:42:00,1733E-3,5C000400,-0724,0839,12062,030.7,045.5,0.251,762.2,01.16,0.508
2016-03-06 03:43:00,1914E-3,5C000400,-0724,0839,12140,030.8,045.5,0.251,762.2,01.16,0.508
2016-03-06 03:44:00,1834E-3,5C000400,-0724,0839,11945,030.7,045.5,0.251,762.2,01.16,0.508
2016-03-06 03:45:00,1881E-3,5C000400,-0724,0838,12099,030.7,045.5,0.251,762.1,01.16,0.508
2016-03-06 03:46:00,1965E-3,5C000400,-0724,0839,11973,030.7,045.5,0.251,762.1,01.16,0.508
2016-03-06 03:47:00,1956E-3,5C000400,-0724,0839,12224,030.7,045.5,0.251,762.1,01.16,0.508
2016-03-06 03:48:00,1972E-3,5C000400,-0724,0838,12157,030.7,045.5,0.251,762.0,01.16,0.508
2016-03-06 03:49:00,1906E-3,5C000400,-0724,0838,12151,030.7,045.5,0.251,762.0,01.16,0.508
2016-03-06 03:50:00,1992E-3,5C000400,-0724,0839,11999,030.7,045.5,0.251,762.0,01.16,0.508
2016-03-06 03:51:00,1790E-3,5C000400,-0724,0838,12209,030.7,045.5,0.251,762.0,01.16,0.508
2016-03-06 03:52:00,1928E-3,5C000400,-0724,0839,12036,030.8,045.5,0.251,762.0,01.16,0.508
2016-03-06 03:53:00,1761E-3,5C000400,-0724,0837,12212,030.7,045.5,0.251,762.0,01.16,0.508
2016-03-06 03:54:00,1816E-3,5C000400,-0724,0839,12121,030.7,045.5,0.251,762.0,01.16,0.508
2016-03-06 03:55:00,1849E-3,5C000400,-0724,0839,12021,030.8,045.5,0.251,762.0,01.16,0.508
2016-03-06 03:56:00,1880E-3,5C000400,-0724,0839,12005,030.8,045.5,0.251,761.9,01.16,0.508
2016-03-06 03:57:00,1897E-3,5C000400,-0724,0839,12087,030.8,045.5,0.251,762.0,01.16,0.508
2016-03-06 03:58:00,1906E-3,5C000400,-0724,0838,12154,030.8,045.5,0.251,762.0,01.16,0.508
2016-03-06 03:59:00,1994E-3,5C000400,-0724,0838,12081,030.7,045.5,0.251,761.9,01.16,0.508
2016-03-06 04:00:00,1797E-3,5C000400,-0724,0838,12036,030.6,045.5,0.251,762.0,01.16,0.508
2016-03-06 04:01:00,1883E-3,5C000400,-0724,0839,12198,030.6,045.5,0.251,761.9,01.16,0.508
2016-03-06 04:02:00,1935E-3,5C000400,-0724,0838,12081,030.6,045.5,0.251,762.0,01.16,0.508
2016-03-06 04:03:00,2003E-3,5C000400,-0724,0839,12174,030.6,045.5,0.251,761.9,01.16,0.508
2016-03-06 04:04:00,1868E-3,5C000400,-0724,0839,12022,030.7,045.5,0.251,761.9,01.16,0.508
2016-03-06 04:05:00,1966E-3,5C000400,-0724,0839,12116,030.6,045.5,0.251,761.7,01.16,0.508
2016-03-06 04:06:00,1768E-3,5C000400,-0724,0839,12119,030.6,045.5,0.251,762.0,01.16,0.508
2016-03-06 04:07:00,1814E-3,5C000400,-0724,0839,12235,030.7,045.5,0.251,761.9,01.16,0.508
2016-03-06 04:08:00,1967E-3,5C000400,-0724,0840,12049,030.7,045.5,0.251,761.9,01.16,0.508
2016-03-06 04:09:00,1860E-3,5C000400,-0724,0839,12144,030.7,045.5,0.251,761.9,01.16,0.508
2016-03-06 04:10:00,1704E-3,5C000400,-0724,0839,12097,030.7,045.5,0.251,762.0,01.16,0.508
2016-03-06 04:11:00,1889E-3,5C000400,-0724,0839,12078,030.7,045.5,0.251,761.9,01.16,0.508
2016-03-06 04:12:00,1922E-3,5C000400,-0724,0839,12167,030.6,045.5,0.251,762.0,01.16,0.508
2016-03-06 04:13:00,1791E-3,5C000400,-0724,0838,11941,030.6,045.5,0.251,762.0,01.16,0.508
2016-03-06 04:14:00,1933E-3,5C000400,-0724,0838,12159,030.5,045.5,0.251,762.1,01.16,0.508
2016-03-06 04:15:00,1937E-3,5C000400,-0724,0838,12062,030.5,045.5,0.251,762.0,01.16,0.508
2016-03-06 04:16:00,1871E-3,5C000400,-0724,0839,12078,030.6,045.5,0.251,762.1,01.16,0.508
2016-03-06 04:17:00,1942E-3,5C000400,-0724,0838,12107,030.6,045.5,0.251,762.0,01.16,0.508
2016-03-06 04:18:00,1855E-3,5C000400,-0724,0838,12124,030.6,045.5,0.251,762.0,01.16,0.508
2016-03-06 04:19:00,1810E-3,5C000400,-0724,0839,12242,030.6,045.5,0.251,762.1,01.16,0.508
2016-03-06 04:20:00,1835E-3,5C000400,-0724,0838,12195,030.7,045.5,0.251,762.0,01.16,0.508